Tracking 29033 objects as of 22-Jun-2024
HD Live streaming from Space Station
objects crossing your sky now

COSMOS 1823 DEB

Track COSMOS 1823 DEB now!
10-day predictions


NORAD ID: 29359
Int'l Code: 1987-020EA
Perigee: 1,485.7 km
Apogee: 1,532.3 km
Inclination: 73.6 °
Period: 116.0 minutes
Semi major axis: 7880 km
RCS: 0.0053 m2 (small)
Launch date: February 20, 1987
Source: Commonwealth of Independent States (former USSR) (CIS)
Launch site: PLESETSK MISSILE AND SPACE COMPLEX (PKMTR)

Note: This is SATELLITE DEBRIS
Your satellite tracking list
Your tracking list is empty




NASA's NSSDC Master Catalog

Two Line Element Set (TLE):
1 29359U 87020EA  24172.13809054 -.00000021  00000-0 -29294-4 0  9996
2 29359  73.6164 319.0087 0029600 196.9903 338.5361 12.41114307438669
Source of the keplerian elements: AFSPC